Home > Weather > Lausanne > Past weeks

Flag for Switzerland Past Weather in Lausanne, Vaud, Switzerland — Yesterday and Last 2 Weeks

Now
78 °F

Sunny.


Feels Like: 81 °F
Forecast: 64 / 84 °F
Wind: 5 mph from North

Location: Aigle

Current Time: Aug 27, 2016 at 12:22:22 PM

Latest Report: Aug 27, 2016 at 11:00 AM


Visibility: 19 mi

Pressure: 30.08 "Hg

Humidity: 74%

Dew Point: 69 °F

Location of LausanneLocation

Past Weather in Lausanne — Graph

°F

Lausanne Temperature Yesterday

Maximum temperature yesterday: 84 °F (at 5:00 PM)
Minimum temperature yesterday: 62 °F (at 7:00 AM)
Average temperature yesterday: 72 °F

High & Low Weather Summary for the Past Weeks

 TemperatureHumidityPressure
High84 °F (Aug 26, 5:00 PM)98% (Aug 27, 1:00 AM)30.37 "Hg (Aug 27, 1:00 AM)
Low49 °F (Aug 22, 6:00 AM)44% (Aug 14, 6:00 PM)29.79 "Hg (Aug 17, 5:00 PM)
Average68 °F78%30.08 "Hg
* Reported Aug 12 10:00 AM — Aug 27 10:00 AM, Lausanne, Weather by CustomWeather, © 2016

Note: Actual official high and low records may vary slightly from our data, if they occured in-between our weather recording intervals... More about our weather records

Advertising

Lausanne Weather History for the Previous 24 Hours

Scroll right to see more
 ConditionsComfort  
Time TempWeatherWind HumidityBarometerVisibility
10:00 AM
Sat, Aug 27
76 °FMild.5 mph73%30.09 "HgN/A
9:00 AM72 °FMild.1 mph86%30.09 "HgN/A
8:00 AM65 °FSunny.1 mph96%30.09 "Hg19 mi
7:00 AM62 °FCool.No wind98%30.09 "HgN/A
6:00 AM64 °FMild.2 mph96%30.07 "HgN/A
5:00 AM65 °FClear.3 mph96%30.07 "Hg16 mi
4:00 AM65 °FMild.3 mph97%30.08 "HgN/A
3:00 AM65 °FMild.2 mph97%30.08 "HgN/A
2:00 AM65 °FMild.3 mph97%30.06 "HgN/A
1:00 AM66 °FMild.1 mph98%30.06 "HgN/A
12:00 AM67 °FMild.1 mph97%30.06 "HgN/A
11:00 PM
Fri, Aug 26
68 °FMild.1 mph95%30.05 "HgN/A
10:00 PM69 °FMild.1 mph95%30.04 "HgN/A
9:00 PM70 °FMild.1 mph96%30.02 "HgN/A
8:00 PM74 °FSunny.1 mph89%30.00 "Hg28 mi
7:00 PM82 °FWarm.2 mph67%29.97 "HgN/A
6:00 PM83 °FWarm.2 mph62%29.97 "HgN/A
5:00 PM84 °FSunny.3 mph52%29.98 "Hg28 mi
4:00 PM84 °FWarm.3 mph48%29.99 "HgN/A
3:00 PM83 °FWarm.8 mph48%30.01 "HgN/A
2:00 PM82 °FSunny.6 mph55%30.02 "Hg28 mi
1:00 PM82 °FWarm.6 mph59%30.03 "HgN/A
12:00 PM80 °FWarm.5 mph60%30.05 "HgN/A
Weather by CustomWeather, © 2016

See weather overviewHow to use our weather pages